Weather History for Wilmington, OH

Change the Weather History Date:

Tuesday, March 19, 2013

  Actual Average (KDAY) Record (KDAY)
Temperature  
Mean Temperature 34 °F 42 °F  
Max Temperature 41 °F 51 °F 81 °F (2012)
Min Temperature 28 °F 32 °F 10 °F (1934)
Degree Days  
Heating Degree Days 30 24  
Month to date heating degree days 511  
Since 1 July heating degree days 4786  
Cooling Degree Days 0 0  
Month to date cooling degree days 0  
Year to date cooling degree days 0  
Moisture  
Dew Point 24 °F    
Average Humidity 64    
Maximum Humidity 87    
Minimum Humidity 33    
Precipitation  
Precipitation 0.00 in 0.11 in 2.63 in (1943)
Month to date precipitation 1.89  
Year to date precipitation 6.84  
Snow  
Snow 0.00 in 0.10 in 7.50 in (1906)
Month to date snowfall 2.5  
Since 1 July snowfall 21.8  
Snow Depth -    
Sea Level Pressure  
Sea Level Pressure 29.95 in    
Wind  
Wind Speed 18 mph (West)    
Max Wind Speed 30 mph    
Max Gust Speed 43 mph    
Visibility 10 miles    
Events Rain    
T = Trace of Precipitation, MM = Missing Value Source: NWS Daily Summary

Daily Weather History Graph

Daily Weather History Graph

Search for Another Location

Airport:

Trip Planner

Search our weather history database for the weather conditions in past years. The results will help you decide how hot, cold, wet, or windy it might be!

Date:

Astronomy

Mar. 19, 2013 Rise Set
Actual Time 7:39 AM EDT 7:46 PM EDT
Civil Twilight 7:13 AM EDT 8:13 PM EDT
Nautical Twilight 6:41 AM EDT 8:44 PM EDT
Astronomical Twilight 6:10 AM EDT 9:16 PM EDT
Moon 12:31 PM EDT (3/19) 2:31 AM EDT (3/19)
Length of Visible Light 13h 00m
Length of Day
12h 06m
Waxing Crescent, 49% of the Moon is Illuminated
Mar 19
Waxing Crescent
Mar 19
First Quarter
Mar 27
Full
Apr 3
Last Quarter
Apr 10
New

Hourly Weather History & Observations

Time (EDT) Temp. Windchill Dew Point Humidity Pressure Visibility Wind Dir Wind Speed Gust Speed Precip Events Conditions
12:07 AM 39.2 °F 29.6 °F 30.2 °F 70% 29.80 in 10.0 mi West 19.6 mph 28.8 mph N/A   Overcast
12:47 AM 39.2 °F 30.2 °F 30.2 °F 70% 29.81 in 10.0 mi West 17.3 mph 24.2 mph N/A   Overcast
12:54 AM 37.9 °F 30.9 °F 30.9 °F 76% 29.86 in 10.0 mi West 10.4 mph 23.0 mph N/A   Mostly Cloudy
1:05 AM 37.4 °F 28.9 °F 30.2 °F 75% 29.80 in 10.0 mi West 13.8 mph - N/A   Mostly Cloudy
1:54 AM 37.9 °F 30.5 °F 30.9 °F 76% 29.84 in 10.0 mi WSW 11.5 mph - N/A   Overcast
2:54 AM 37.0 °F 27.4 °F 32.0 °F 82% 29.87 in 10.0 mi WSW 17.3 mph - N/A   Mostly Cloudy
3:35 AM 37.4 °F 27.2 °F 33.8 °F 87% 29.83 in 10.0 mi WSW 19.6 mph - N/A   Overcast
3:54 AM 37.0 °F 26.7 °F 32.0 °F 82% 29.87 in 10.0 mi WSW 19.6 mph 26.5 mph N/A   Mostly Cloudy
4:25 AM 37.4 °F 27.8 °F 32.0 °F 81% 29.83 in 10.0 mi WSW 17.3 mph 25.3 mph N/A   Mostly Cloudy
4:54 AM 37.0 °F 28.5 °F 32.0 °F 82% 29.88 in 10.0 mi West 13.8 mph - N/A   Mostly Cloudy
5:12 AM 35.6 °F 24.2 °F 30.2 °F 81% 29.83 in 10.0 mi West 21.9 mph 26.5 mph N/A   Partly Cloudy
5:45 AM 35.6 °F 26.6 °F 30.2 °F 81% 29.85 in 10.0 mi West 13.8 mph - 0.00 in Rain Light Rain
5:54 AM 35.1 °F 25.2 °F 28.0 °F 76% 29.90 in 10.0 mi West 16.1 mph - 0.00 in   Overcast
6:18 AM 33.8 °F 23.5 °F 26.6 °F 75% 29.86 in 10.0 mi West 16.1 mph 21.9 mph N/A   Scattered Clouds
6:54 AM 32.0 °F 21.2 °F 25.0 °F 75% 29.92 in 10.0 mi West 16.1 mph - N/A   Clear
7:54 AM 30.0 °F 17.9 °F 21.9 °F 72% 29.94 in 10.0 mi West 18.4 mph 26.5 mph N/A   Clear
8:54 AM 28.9 °F 16.1 °F 21.0 °F 72% 29.94 in 10.0 mi West 19.6 mph 32.2 mph N/A   Partly Cloudy
9:54 AM 28.9 °F 14.8 °F 19.0 °F 67% 29.98 in 10.0 mi West 24.2 mph 31.1 mph N/A   Clear
10:54 AM 30.9 °F 17.2 °F 19.9 °F 64% 29.99 in 10.0 mi West 25.3 mph 32.2 mph N/A   Clear
11:54 AM 34.0 °F 22.1 °F 21.0 °F 59% 29.99 in 10.0 mi WSW 21.9 mph 31.1 mph N/A   Clear
12:54 PM 37.0 °F 25.6 °F 19.9 °F 50% 29.98 in 10.0 mi WSW 24.2 mph 31.1 mph N/A   Clear
2:54 PM 39.9 °F 29.5 °F 19.9 °F 45% 30.01 in 10.0 mi WSW 24.2 mph 39.1 mph N/A   Partly Cloudy
3:54 PM 41.0 °F 30.9 °F 18.0 °F 40% 30.02 in 10.0 mi West 24.2 mph 39.1 mph N/A   Clear
4:54 PM 41.0 °F 29.8 °F 15.1 °F 35% 30.04 in 10.0 mi WNW 29.9 mph 42.6 mph N/A   Clear
5:54 PM 39.9 °F 30.0 °F 12.9 °F 33% 30.06 in 10.0 mi WNW 21.9 mph 41.4 mph N/A   Clear
6:54 PM 39.0 °F 29.3 °F 15.1 °F 38% 30.07 in 10.0 mi West 19.6 mph 28.8 mph N/A   Clear
7:54 PM 37.0 °F 27.7 °F 15.1 °F 41% 30.10 in 10.0 mi West 16.1 mph - N/A   Clear
8:54 PM 35.1 °F 24.8 °F 17.1 °F 48% 30.12 in 10.0 mi West 17.3 mph 23.0 mph N/A   Clear
9:54 PM 35.1 °F 26.9 °F 16.0 °F 46% 30.13 in 10.0 mi West 11.5 mph 19.6 mph N/A   Clear
10:54 PM 34.0 °F 24.6 °F 16.0 °F 48% 30.14 in 10.0 mi West 13.8 mph - N/A   Clear
11:54 PM 34.0 °F 25.5 °F 16.0 °F 48% 30.13 in 10.0 mi West 11.5 mph - N/A   Clear